Location: Unspecified
(0.0000°N, 0.0000°E)
Time: 11:10:25
(UTC+02:00)

Cosmos 1953 Rocket - Visible Passes

Search period start: 24 May 2015 00:00
Search period end: 03 June 2015 00:00
Orbit: 604 x 637 km, 82.5° (Epoch: 24 May)

Date Brightness Start Highest point End Pass type
(mag) Time Alt. Az. Time Alt. Az. Time Alt. Az.
27 May 5.7 21:58:49 17° N 21:58:49 17° N 21:59:49 10° N visible
28 May 5.4 22:15:09 27° NNW 22:15:09 27° NNW 22:17:22 10° NNW visible
29 May 5.2 20:54:11 15° E 20:54:11 15° E 20:56:04 10° NE visible
29 May 6.1 22:31:15 19° W 22:31:15 19° W 22:34:02 10° NW visible
30 May 4.0 21:10:00 30° SE 21:11:09 36° E 21:15:09 10° NNE visible
31 May 3.4 21:25:18 15° S 21:28:56 89° E 21:33:16 10° N visible
01 Jun 4.9 21:42:39 10° SSW 21:46:43 37° W 21:50:42 10° NNW visible
02 Jun 5.0 20:23:51 10° SE 20:26:45 18° E 20:29:49 10° NE visible
02 Jun 6.4 22:01:43 10° SW 22:04:33 16° W 22:07:09 10° NW visible
